Time,TemperatureF,DewpointF,PressureIn,WindDirection,WindDirectionDegrees,WindSpeedMPH,WindSpeedGustMPH,Humidity,HourlyPrecipIn,Conditions,Clouds,dailyrainin,SoftwareType,DateUTC
2013-05-05 00:02:00,57.0,46.0,30.28,South,170,5.0,-999.0,67,-99.99,,,-99.99,,2013-05-05 04:02:00,
2013-05-05 00:12:00,57.0,46.0,30.28,North,0,0.0,-999.0,67,-99.99,,,-99.99,,2013-05-05 04:12:00,
2013-05-05 00:23:00,55.0,46.0,30.29,SSE,160,3.0,-999.0,71,-99.99,,,-99.99,,2013-05-05 04:23:00,
2013-05-05 00:33:00,55.0,46.0,30.29,South,170,3.0,-999.0,71,-99.99,,,-99.99,,2013-05-05 04:33:00,
2013-05-05 00:43:00,55.0,46.0,30.29,South,180,3.0,-999.0,71,-99.99,,,-99.99,,2013-05-05 04:43:00,
2013-05-05 00:52:00,55.0,46.0,30.29,North,0,0.0,-999.0,71,-99.99,,,-99.99,,2013-05-05 04:52:00,
2013-05-05 01:02:00,55.0,46.0,30.29,North,0,0.0,-999.0,71,-99.99,,,-99.99,,2013-05-05 05:02:00,
2013-05-05 01:12:00,54.0,46.0,30.29,North,0,0.0,-999.0,76,-99.99,,,-99.99,,2013-05-05 05:12:00,
2013-05-05 01:22:00,52.0,46.0,30.29,SSE,160,3.0,-999.0,81,-99.99,,,-99.99,,2013-05-05 05:22:00,
2013-05-05 01:32:00,52.0,46.0,30.29,South,180,3.0,-999.0,81,-99.99,,,-99.99,,2013-05-05 05:32:00,
2013-05-05 01:42:00,52.0,45.0,30.29,South,170,5.0,-999.0,76,-99.99,,,-99.99,,2013-05-05 05:42:00,
2013-05-05 01:51:00,52.0,45.0,30.29,SSE,150,5.0,-999.0,76,-99.99,,,-99.99,,2013-05-05 05:51:00,
2013-05-05 02:01:00,50.0,45.0,30.28,SSE,150,3.0,-999.0,81,-99.99,,,-99.99,,2013-05-05 06:01:00,
2013-05-05 02:12:00,52.0,45.0,30.28,North,0,0.0,-999.0,76,-99.99,,,-99.99,,2013-05-05 06:12:00,
2013-05-05 02:21:00,48.0,45.0,30.28,North,0,0.0,-999.0,87,-99.99,,,-99.99,,2013-05-05 06:21:00,
2013-05-05 02:32:00,46.0,45.0,30.28,South,170,3.0,-999.0,93,-99.99,,,-99.99,,2013-05-05 06:32:00,
2013-05-05 02:42:00,46.0,45.0,30.28,North,0,0.0,-999.0,93,-99.99,,,-99.99,,2013-05-05 06:42:00,
2013-05-05 02:52:00,46.0,45.0,30.28,SE,140,3.0,-999.0,93,-99.99,,,-99.99,,2013-05-05 06:52:00,
2013-05-05 03:01:00,46.0,45.0,30.28,SE,140,3.0,-999.0,93,-99.99,,,-99.99,,2013-05-05 07:01:00,
2013-05-05 03:11:00,46.0,43.0,30.28,North,0,0.0,-999.0,87,-99.99,,,-99.99,,2013-05-05 07:11:00,
2013-05-05 03:22:00,46.0,45.0,30.28,SSE,150,3.0,-999.0,93,-99.99,,,-99.99,,2013-05-05 07:22:00,
2013-05-05 03:32:00,48.0,43.0,30.28,North,0,0.0,-999.0,81,-99.99,,,-99.99,,2013-05-05 07:32:00,
2013-05-05 03:42:00,48.0,43.0,30.28,North,0,0.0,-999.0,81,-99.99,,,-99.99,,2013-05-05 07:42:00,
2013-05-05 03:52:00,48.0,45.0,30.28,North,0,0.0,-999.0,87,-99.99,,,-99.99,,2013-05-05 07:52:00,
2013-05-05 04:02:00,48.0,43.0,30.28,North,0,0.0,-999.0,81,-99.99,,,-99.99,,2013-05-05 08:02:00,
2013-05-05 04:11:00,46.0,43.0,30.28,North,0,0.0,-999.0,87,-99.99,,,-99.99,,2013-05-05 08:11:00,
2013-05-05 04:21:00,45.0,43.0,30.28,North,0,0.0,-999.0,93,-99.99,,,-99.99,,2013-05-05 08:21:00,
2013-05-05 04:32:00,45.0,43.0,30.28,North,0,0.0,-999.0,93,-99.99,,,-99.99,,2013-05-05 08:32:00,
2013-05-05 04:42:00,45.0,43.0,30.28,North,0,0.0,-999.0,93,-99.99,,,-99.99,,2013-05-05 08:42:00,
2013-05-05 04:53:00,45.0,43.0,30.28,North,0,0.0,-999.0,93,-99.99,,,-99.99,,2013-05-05 08:53:00,
2013-05-05 05:01:00,45.0,43.0,30.28,North,0,0.0,-999.0,93,-99.99,,,-99.99,,2013-05-05 09:01:00,
2013-05-05 05:11:00,45.0,43.0,30.29,North,0,0.0,-999.0,93,-99.99,,,-99.99,,2013-05-05 09:11:00,
2013-05-05 05:21:00,43.0,41.0,30.29,North,0,0.0,-999.0,93,-99.99,,,-99.99,,2013-05-05 09:21:00,
2013-05-05 05:33:00,43.0,41.0,30.29,North,0,0.0,-999.0,93,-99.99,,,-99.99,,2013-05-05 09:33:00,
2013-05-05 05:42:00,43.0,41.0,30.29,North,0,0.0,-999.0,93,-99.99,,,-99.99,,2013-05-05 09:42:00,
2013-05-05 05:52:00,43.0,41.0,30.29,North,0,0.0,-999.0,93,-99.99,,,-99.99,,2013-05-05 09:52:00,
2013-05-05 06:03:00,43.0,41.0,30.29,North,0,0.0,-999.0,93,-99.99,,,-99.99,,2013-05-05 10:03:00,
2013-05-05 06:12:00,43.0,39.0,30.30,North,0,0.0,-999.0,86,-99.99,,,-99.99,,2013-05-05 10:12:00,
2013-05-05 06:22:00,43.0,41.0,30.30,North,0,0.0,-999.0,93,-99.99,,,-99.99,,2013-05-05 10:22:00,
2013-05-05 06:32:00,43.0,41.0,30.30,North,0,0.0,-999.0,93,-99.99,,,-99.99,,2013-05-05 10:32:00,
2013-05-05 06:42:00,43.0,41.0,30.31,North,0,0.0,-999.0,93,-99.99,,,-99.99,,2013-05-05 10:42:00,
2013-05-05 06:52:00,45.0,43.0,30.31,North,0,0.0,-999.0,93,-99.99,,,-99.99,,2013-05-05 10:52:00,
2013-05-05 07:01:00,45.0,43.0,30.31,North,0,0.0,-999.0,93,-99.99,,,-99.99,,2013-05-05 11:01:00,
2013-05-05 07:12:00,45.0,43.0,30.31,North,0,0.0,-999.0,93,-99.99,,,-99.99,,2013-05-05 11:12:00,
2013-05-05 07:22:00,48.0,45.0,30.31,North,0,0.0,-999.0,87,-99.99,,,-99.99,,2013-05-05 11:22:00,
2013-05-05 07:32:00,50.0,39.0,30.31,North,0,0.0,-999.0,66,-99.99,,,-99.99,,2013-05-05 11:32:00,
2013-05-05 07:42:00,52.0,39.0,30.31,North,0,0.0,-999.0,61,-99.99,,,-99.99,,2013-05-05 11:42:00,
2013-05-05 07:52:00,52.0,39.0,30.31,SSE,150,5.0,-999.0,61,-99.99,,,-99.99,,2013-05-05 11:52:00,
2013-05-05 08:02:00,52.0,37.0,30.31,North,0,0.0,-999.0,57,-99.99,,,-99.99,,2013-05-05 12:02:00,
2013-05-05 08:11:00,54.0,37.0,30.31,North,0,0.0,-999.0,54,-99.99,,,-99.99,,2013-05-05 12:11:00,
2013-05-05 08:21:00,54.0,37.0,30.31,SSE,160,3.0,-999.0,54,-99.99,,,-99.99,,2013-05-05 12:21:00,
2013-05-05 08:32:00,54.0,37.0,30.32,North,0,0.0,-999.0,54,-99.99,,,-99.99,,2013-05-05 12:32:00,
2013-05-05 08:42:00,55.0,37.0,30.31,SSE,150,3.0,-999.0,50,-99.99,,,-99.99,,2013-05-05 12:42:00,
2013-05-05 08:52:00,55.0,36.0,30.31,SE,140,5.0,-999.0,47,-99.99,,,-99.99,,2013-05-05 12:52:00,
2013-05-05 09:01:00,55.0,36.0,30.31,SSE,160,3.0,-999.0,47,-99.99,,,-99.99,,2013-05-05 13:01:00,
2013-05-05 09:11:00,55.0,36.0,30.31,North,0,0.0,-999.0,47,-99.99,,,-99.99,,2013-05-05 13:11:00,
2013-05-05 09:21:00,57.0,36.0,30.31,North,0,0.0,-999.0,44,-99.99,,,-99.99,,2013-05-05 13:21:00,
2013-05-05 09:32:00,57.0,36.0,30.31,North,0,0.0,-999.0,44,-99.99,,,-99.99,,2013-05-05 13:32:00,
2013-05-05 09:42:00,57.0,36.0,30.31,North,0,0.0,-999.0,44,-99.99,,,-99.99,,2013-05-05 13:42:00,
2013-05-05 09:52:00,59.0,37.0,30.30,SSE,150,5.0,-999.0,44,-99.99,,,-99.99,,2013-05-05 13:52:00,
2013-05-05 10:02:00,59.0,36.0,30.30,SE,140,3.0,-999.0,41,-99.99,,,-99.99,,2013-05-05 14:02:00,
2013-05-05 10:11:00,59.0,36.0,30.30,North,0,0.0,-999.0,41,-99.99,,,-99.99,,2013-05-05 14:11:00,
2013-05-05 10:21:00,61.0,36.0,30.30,ENE,60,5.0,-999.0,38,-99.99,,,-99.99,,2013-05-05 14:21:00,
2013-05-05 10:32:00,61.0,36.0,30.29,North,0,0.0,-999.0,38,-99.99,,,-99.99,,2013-05-05 14:32:00,
2013-05-05 10:42:00,61.0,36.0,30.29,North,0,0.0,-999.0,38,-99.99,,,-99.99,,2013-05-05 14:42:00,
2013-05-05 10:52:00,63.0,36.0,30.29,West,280,3.0,-999.0,36,-99.99,,,-99.99,,2013-05-05 14:52:00,
2013-05-05 11:02:00,63.0,36.0,30.29,West,270,3.0,-999.0,36,-99.99,,,-99.99,,2013-05-05 15:02:00,
2013-05-05 11:11:00,63.0,36.0,30.28,WSW,240,5.0,-999.0,36,-99.99,,,-99.99,,2013-05-05 15:11:00,
2013-05-05 11:21:00,63.0,37.0,30.28,WSW,250,3.0,-999.0,39,-99.99,,,-99.99,,2013-05-05 15:21:00,
2013-05-05 11:33:00,64.0,37.0,30.27,WSW,250,5.0,-999.0,36,-99.99,,,-99.99,,2013-05-05 15:33:00,
2013-05-05 11:43:00,64.0,36.0,30.27,North,0,0.0,-999.0,34,-99.99,,,-99.99,,2013-05-05 15:43:00,
2013-05-05 11:53:00,66.0,37.0,30.26,North,0,0.0,-999.0,34,-99.99,,,-99.99,,2013-05-05 15:53:00,
2013-05-05 12:03:00,64.0,37.0,30.26,SSE,150,3.0,-999.0,36,-99.99,,,-99.99,,2013-05-05 16:03:00,
2013-05-05 12:12:00,66.0,37.0,30.26,West,260,3.0,-999.0,34,-99.99,,,-99.99,,2013-05-05 16:12:00,
2013-05-05 12:23:00,66.0,37.0,30.25,SSW,200,5.0,-999.0,34,-99.99,,,-99.99,,2013-05-05 16:23:00,
2013-05-05 12:32:00,68.0,39.0,30.25,West,270,3.0,-999.0,34,-99.99,,,-99.99,,2013-05-05 16:32:00,
2013-05-05 12:42:00,70.0,39.0,30.25,WSW,240,5.0,-999.0,32,-99.99,,,-99.99,,2013-05-05 16:42:00,
2013-05-05 12:52:00,68.0,37.0,30.24,SW,230,6.0,-999.0,32,-99.99,,,-99.99,,2013-05-05 16:52:00,
2013-05-05 13:02:00,70.0,37.0,30.24,North,0,0.0,-999.0,30,-99.99,,,-99.99,,2013-05-05 17:02:00,
2013-05-05 13:12:00,70.0,39.0,30.23,West,270,5.0,-999.0,32,-99.99,,,-99.99,,2013-05-05 17:12:00,
2013-05-05 13:23:00,70.0,39.0,30.23,WNW,300,7.0,-999.0,32,-99.99,,,-99.99,,2013-05-05 17:23:00,
2013-05-05 13:32:00,70.0,39.0,30.22,WNW,290,6.0,-999.0,32,-99.99,,,-99.99,,2013-05-05 17:32:00,
2013-05-05 13:42:00,72.0,39.0,30.22,WNW,300,3.0,-999.0,30,-99.99,,,-99.99,,2013-05-05 17:42:00,
2013-05-05 13:52:00,72.0,41.0,30.22,West,280,6.0,-999.0,33,-99.99,,,-99.99,,2013-05-05 17:52:00,
2013-05-05 14:01:00,72.0,39.0,30.22,West,260,6.0,-999.0,30,-99.99,,,-99.99,,2013-05-05 18:01:00,
2013-05-05 14:12:00,72.0,39.0,30.22,NW,310,6.0,-999.0,30,-99.99,,,-99.99,,2013-05-05 18:12:00,
2013-05-05 14:21:00,73.0,39.0,30.21,West,270,3.0,-999.0,28,-99.99,,,-99.99,,2013-05-05 18:21:00,
2013-05-05 14:32:00,73.0,39.0,30.20,West,260,6.0,-999.0,28,-99.99,,,-99.99,,2013-05-05 18:32:00,
2013-05-05 14:42:00,73.0,39.0,30.20,West,260,3.0,-999.0,28,-99.99,,,-99.99,,2013-05-05 18:42:00,
2013-05-05 14:52:00,73.0,37.0,30.20,West,270,6.0,-999.0,26,-99.99,,,-99.99,,2013-05-05 18:52:00,
2013-05-05 15:01:00,75.0,39.0,30.19,NW,310,3.0,-999.0,27,-99.99,,,-99.99,,2013-05-05 19:01:00,
2013-05-05 15:11:00,75.0,37.0,30.19,SW,230,6.0,-999.0,25,-99.99,,,-99.99,,2013-05-05 19:11:00,
2013-05-05 15:21:00,75.0,39.0,30.19,WSW,250,5.0,-999.0,27,-99.99,,,-99.99,,2013-05-05 19:21:00,
2013-05-05 15:32:00,75.0,39.0,30.18,WNW,290,7.0,-999.0,27,-99.99,,,-99.99,,2013-05-05 19:32:00,
2013-05-05 15:42:00,75.0,39.0,30.18,WNW,300,5.0,-999.0,27,-99.99,,,-99.99,,2013-05-05 19:42:00,
2013-05-05 15:52:00,75.0,37.0,30.18,West,280,5.0,-999.0,25,-99.99,,,-99.99,,2013-05-05 19:52:00,
2013-05-05 16:01:00,75.0,39.0,30.18,West,260,6.0,-999.0,27,-99.99,,,-99.99,,2013-05-05 20:01:00,
2013-05-05 16:11:00,75.0,39.0,30.17,WSW,250,3.0,-999.0,27,-99.99,,,-99.99,,2013-05-05 20:11:00,
2013-05-05 16:21:00,77.0,39.0,30.16,WSW,240,6.0,-999.0,25,-99.99,,,-99.99,,2013-05-05 20:21:00,
2013-05-05 16:32:00,77.0,39.0,30.16,West,260,6.0,-999.0,25,-99.99,,,-99.99,,2013-05-05 20:32:00,
2013-05-05 16:42:00,77.0,37.0,30.16,West,280,5.0,-999.0,23,-99.99,,,-99.99,,2013-05-05 20:42:00,
2013-05-05 16:52:00,77.0,37.0,30.16,WSW,240,6.0,-999.0,23,-99.99,,,-99.99,,2013-05-05 20:52:00,
2013-05-05 17:02:00,77.0,37.0,30.16,West,260,6.0,-999.0,23,-99.99,,,-99.99,,2013-05-05 21:02:00,
2013-05-05 17:11:00,77.0,37.0,30.15,West,260,5.0,-999.0,23,-99.99,,,-99.99,,2013-05-05 21:11:00,
2013-05-05 17:21:00,77.0,39.0,30.15,SW,230,5.0,-999.0,25,-99.99,,,-99.99,,2013-05-05 21:21:00,
2013-05-05 17:33:00,79.0,37.0,30.15,West,260,5.0,-999.0,22,-99.99,,,-99.99,,2013-05-05 21:33:00,
2013-05-05 17:42:00,79.0,37.0,30.15,WNW,300,3.0,-999.0,22,-99.99,,,-99.99,,2013-05-05 21:42:00,
2013-05-05 17:53:00,77.0,37.0,30.15,West,260,6.0,-999.0,23,-99.99,,,-99.99,,2013-05-05 21:53:00,
2013-05-05 18:02:00,77.0,37.0,30.15,WSW,250,5.0,-999.0,23,-99.99,,,-99.99,,2013-05-05 22:02:00,
2013-05-05 18:12:00,77.0,37.0,30.15,West,260,6.0,-999.0,23,-99.99,,,-99.99,,2013-05-05 22:12:00,
2013-05-05 18:22:00,77.0,37.0,30.15,West,260,5.0,-999.0,23,-99.99,,,-99.99,,2013-05-05 22:22:00,
2013-05-05 18:33:00,75.0,37.0,30.15,SSW,200,3.0,-999.0,25,-99.99,,,-99.99,,2013-05-05 22:33:00,
2013-05-05 18:42:00,75.0,37.0,30.15,South,180,5.0,-999.0,25,-99.99,,,-99.99,,2013-05-05 22:42:00,
2013-05-05 18:52:00,77.0,37.0,30.15,SSW,200,3.0,-999.0,23,-99.99,,,-99.99,,2013-05-05 22:52:00,
2013-05-05 19:02:00,75.0,37.0,30.15,South,170,5.0,-999.0,25,-99.99,,,-99.99,,2013-05-05 23:02:00,
2013-05-05 19:12:00,75.0,39.0,30.16,North,0,0.0,-999.0,27,-99.99,,,-99.99,,2013-05-05 23:12:00,
2013-05-05 19:21:00,73.0,34.0,30.16,SSE,150,7.0,-999.0,23,-99.99,,,-99.99,,2013-05-05 23:21:00,
2013-05-05 19:32:00,73.0,34.0,30.16,SE,140,3.0,-999.0,23,-99.99,,,-99.99,,2013-05-05 23:32:00,
2013-05-05 19:42:00,73.0,34.0,30.16,SSE,160,3.0,-999.0,23,-99.99,,,-99.99,,2013-05-05 23:42:00,
2013-05-05 19:52:00,72.0,34.0,30.17,SSE,150,6.0,-999.0,24,-99.99,,,-99.99,,2013-05-05 23:52:00,
2013-05-05 20:01:00,72.0,36.0,30.17,SSE,150,5.0,-999.0,26,-99.99,,,-99.99,,2013-05-06 00:01:00,
2013-05-05 20:11:00,72.0,36.0,30.17,SSE,150,5.0,-999.0,26,-99.99,,,-99.99,,2013-05-06 00:11:00,
2013-05-05 20:21:00,70.0,36.0,30.18,South,170,3.0,-999.0,28,-99.99,,,-99.99,,2013-05-06 00:21:00,
2013-05-05 20:32:00,68.0,37.0,30.18,SSE,160,3.0,-999.0,32,-99.99,,,-99.99,,2013-05-06 00:32:00,
2013-05-05 20:41:00,64.0,37.0,30.18,North,0,0.0,-999.0,36,-99.99,,,-99.99,,2013-05-06 00:41:00,
2013-05-05 20:51:00,64.0,39.0,30.19,North,0,0.0,-999.0,39,-99.99,,,-99.99,,2013-05-06 00:51:00,
2013-05-05 21:01:00,64.0,39.0,30.19,North,0,0.0,-999.0,39,-99.99,,,-99.99,,2013-05-06 01:01:00,
2013-05-05 21:11:00,63.0,39.0,30.20,SSW,200,6.0,-999.0,41,-99.99,,,-99.99,,2013-05-06 01:11:00,
2013-05-05 21:21:00,63.0,45.0,30.21,SSW,200,6.0,-999.0,51,-99.99,,,-99.99,,2013-05-06 01:21:00,
2013-05-05 21:32:00,64.0,46.0,30.21,SSW,200,6.0,-999.0,51,-99.99,,,-99.99,,2013-05-06 01:32:00,
2013-05-05 21:42:00,64.0,46.0,30.21,SSW,200,6.0,-999.0,51,-99.99,,,-99.99,,2013-05-06 01:42:00,
2013-05-05 21:52:00,63.0,46.0,30.22,SSW,200,7.0,-999.0,55,-99.99,,,-99.99,,2013-05-06 01:52:00,
2013-05-05 22:02:00,63.0,46.0,30.22,South,190,7.0,-999.0,55,-99.99,,,-99.99,,2013-05-06 02:02:00,
2013-05-05 22:12:00,63.0,46.0,30.23,South,180,8.0,-999.0,55,-99.99,,,-99.99,,2013-05-06 02:12:00,
2013-05-05 22:21:00,61.0,46.0,30.23,South,180,6.0,-999.0,59,-99.99,,,-99.99,,2013-05-06 02:21:00,
2013-05-05 22:32:00,61.0,46.0,30.23,South,170,6.0,-999.0,59,-99.99,,,-99.99,,2013-05-06 02:32:00,
2013-05-05 22:42:00,61.0,46.0,30.23,SSE,160,5.0,-999.0,59,-99.99,,,-99.99,,2013-05-06 02:42:00,
2013-05-05 22:51:00,61.0,46.0,30.23,SW,220,3.0,-999.0,59,-99.99,,,-99.99,,2013-05-06 02:51:00,
2013-05-05 23:02:00,61.0,46.0,30.24,South,180,3.0,-999.0,59,-99.99,,,-99.99,,2013-05-06 03:02:00,
2013-05-05 23:11:00,57.0,46.0,30.23,SSW,200,3.0,-999.0,67,-99.99,,,-99.99,,2013-05-06 03:11:00,
2013-05-05 23:22:00,55.0,45.0,30.23,North,0,0.0,-999.0,66,-99.99,,,-99.99,,2013-05-06 03:22:00,
2013-05-05 23:33:00,55.0,45.0,30.23,South,180,6.0,-999.0,66,-99.99,,,-99.99,,2013-05-06 03:33:00,
2013-05-05 23:42:00,55.0,45.0,30.23,South,170,6.0,-999.0,66,-99.99,,,-99.99,,2013-05-06 03:42:00,
2013-05-05 23:52:00,55.0,45.0,30.24,South,170,6.0,-999.0,66,-99.99,,,-99.99,,2013-05-06 03:52:00,